Wind_Speed
43 45 46 48 51 53 55 58 61 63 66 68 71 73 75 78 80 82 83 85 86 87 88 88 88 88 88 88 87 87 87 87 87 82 81 83 84 84 83 83 83 84 84
46 48 50 52 55 57 60 62 65 68 70 73 75 78 80 82 84 85 87 88 88 88 87 87 86 84 83 81 80 79 78 77 77 74 71 72 74 74 75 74 74 75 76
49 51 54 56 59 61 64 66 69 72 74 77 79 81 83 85 87 88 88 88 88 86 84 82 80 77 75 73 71 70 69 69 69 67 64 64 65 66 67 67 66 67 67
53 55 57 60 63 65 68 70 73 76 78 80 83 85 86 88 88 88 87 86 83 81 78 75 71 69 67 65 64 63 63 63 63 62 59 58 58 59 61 61 61 62 62
56 58 61 63 66 69 71 74 77 79 81 83 85 87 88 88 87 86 83 80 77 73 69 66 64 62 61 60 59 58 58 58 58 57 55 54 53 54 55 56 57 58 59
59 61 64 67 69 72 74 77 79 81 83 86 87 88 87 85 83 80 77 73 69 66 63 61 59 58 56 56 56 55 55 54 54 53 52 50 49 50 51 52 53 54 55
62 64 67 70 72 75 77 79 82 84 86 87 87 87 84 80 76 72 69 66 62 60 58 56 54 53 52 52 51 50 50 50 51 51 49 47 47 47 49 50 50 50 50
64 67 70 72 75 77 80 82 84 86 87 87 85 82 78 73 69 66 62 59 56 55 53 52 50 48 48 47 47 46 46 47 48 48 47 46 45 45 46 47 47 48 47
67 70 72 75 77 80 82 84 86 87 86 84 80 76 71 66 63 60 57 54 52 51 50 48 47 46 45 45 45 44 44 44 45 45 45 44 43 43 43 43 43 44 44
69 72 74 77 80 82 84 86 86 86 83 79 73 68 64 60 57 55 53 51 50 48 46 45 45 44 44 44 44 44 43 43 43 42 42 42 41 41 41 41 41 42 42
72 74 76 79 82 84 85 85 84 81 77 72 67 62 59 56 54 52 51 50 48 46 44 43 43 43 43 43 43 43 42 42 41 39 39 38 39 39 39 40 40 41 41
74 76 78 81 83 84 84 82 79 75 70 65 60 56 54 53 51 49 48 47 47 45 44 43 42 42 42 42 42 41 41 40 39 38 37 37 37 38 38 39 39 40 41
75 78 80 82 83 82 81 77 72 68 64 60 56 53 50 49 48 46 45 45 45 44 43 42 41 41 41 40 40 40 39 39 38 38 37 37 37 37 37 38 39 39 40
77 80 82 82 81 78 75 71 67 63 60 56 54 51 48 46 45 43 42 42 42 42 41 40 39 39 39 38 37 37 37 37 38 38 37 37 37 38 39 39 39 39 39
80 81 81 80 78 74 70 66 62 59 57 54 51 49 47 44 42 41 41 40 40 39 39 38 37 37 36 36 36 36 36 36 36 36 36 36 37 37 38 38 38 38 39
81 80 79 77 74 69 65 60 57 55 53 51 49 47 45 43 41 40 40 40 39 39 38 37 36 35 35 35 35 35 35 35 35 35 35 35 35 35 35 35 36 36 37
80 79 77 73 69 64 60 56 52 49 48 47 46 45 44 42 41 40 39 38 38 38 37 35 35 35 35 35 35 35 35 35 35 34 34 33 33 33 33 33 34 35 35
78 75 72 68 64 60 56 53 49 47 44 42 42 43 42 40 39 39 38 37 37 36 35 35 34 34 34 34 34 34 34 34 33 33 32 32 31 31 31 32 33 33 34
74 71 67 63 59 55 52 49 47 45 43 41 40 39 39 38 37 37 37 36 36 35 34 33 33 33 33 33 32 32 31 31 31 30 30 30 29 30 30 30 31 32 33
69 66 62 58 54 51 49 47 45 43 42 41 39 38 36 36 35 35 36 35 34 33 32 32 32 31 31 31 31 31 30 30 29 28 28 27 27 28 29 29 30 30 31
65 60 57 54 51 49 47 45 43 42 41 40 38 37 36 35 34 34 34 33 32 32 31 31 30 30 30 30 30 30 29 28 28 27 27 27 28 28 28 29 29 29 30
60 56 53 50 48 46 44 43 42 41 40 39 37 36 35 34 34 33 32 31 31 30 30 29 29 29 29 30 29 29 28 28 27 27 27 27 28 28 28 28 29 29 29
55 52 50 48 46 44 42 41 41 39 38 37 35 34 33 33 32 32 31 31 30 29 29 28 28 29 30 30 30 30 29 29 29 28 28 28 28 28 28 28 28 28 28
52 50 48 46 44 42 40 39 38 37 36 34 33 32 32 31 31 30 30 30 29 29 28 28 28 29 30 30 30 30 30 30 30 29 29 28 28 28 27 27 27 27 27
49 47 45 43 41 39 38 37 36 34 33 33 32 31 30 30 30 30 29 29 29 28 28 28 29 29 30 31 31 31 31 30 30 30 29 29 28 28 28 27 27 27 27
47 45 43 40 38 37 36 35 33 32 31 31 30 29 29 29 29 28 29 29 28 28 28 28 28 29 30 31 31 31 31 30 30 30 29 29 28 28 27 27 27 27 27
Wind_Direction
293 294 295 296 297 298 299 299 300 301 301 301 301 301 301 301 300 299 298 297 296 295 294 292 291 290 288 286 285 284 282 281 280 278 275 273 272 270 268 266 265 263 262
295 296 297 298 299 300 301 301 302 303 303 303 303 303 303 302 302 301 300 298 297 296 295 293 292 290 289 287 286 285 284 283 282 281 277 275 273 271 269 267 266 264 262
297 298 300 300 301 302 303 304 304 304 305 305 305 305 304 304 303 302 301 300 299 298 296 295 293 291 290 288 287 285 284 284 283 282 280 276 274 272 270 268 266 265 262
299 301 301 302 303 304 304 305 305 306 306 306 306 306 305 305 304 303 302 301 300 299 297 296 294 292 290 289 287 286 286 285 285 284 283 279 276 273 271 269 266 264 262
301 302 303 304 305 305 306 306 307 307 307 307 307 307 307 306 305 304 302 301 300 299 297 295 293 291 290 289 288 287 286 286 285 285 283 280 277 274 271 269 267 264 261
302 303 304 305 305 306 307 307 308 308 309 309 308 308 308 307 305 304 302 302 301 299 297 295 293 291 290 289 288 287 287 286 286 284 283 280 277 274 271 269 268 265 263
303 304 305 306 307 307 308 308 309 309 310 310 309 309 308 307 305 303 302 301 300 299 297 296 294 292 291 290 288 287 287 287 286 285 283 280 277 274 272 270 268 266 263
304 305 306 307 308 308 309 309 310 310 311 311 310 310 308 307 305 303 302 301 301 300 299 297 295 293 292 291 290 288 288 288 287 285 284 281 278 275 273 271 269 266 264
306 307 307 308 309 309 310 310 311 311 312 312 311 310 308 307 305 304 302 302 302 301 299 298 297 295 293 292 291 290 289 289 287 285 284 282 279 277 274 272 269 267 264
307 308 308 309 310 310 311 312 312 312 313 312 311 310 308 307 306 304 303 303 303 302 300 299 297 295 294 292 292 291 291 290 287 285 283 281 279 277 275 272 270 268 265
308 308 309 310 311 312 312 313 313 313 313 312 311 310 308 307 306 305 304 304 304 303 301 299 298 296 294 293 293 292 291 290 287 284 282 280 278 277 275 272 270 269 267
309 310 310 311 312 313 314 314 313 313 312 311 310 309 308 307 306 305 304 304 304 304 303 301 299 296 295 294 294 293 291 290 288 285 282 280 278 276 274 273 271 270 269
310 311 312 313 313 314 314 314 313 312 311 311 310 309 308 307 306 305 304 304 304 304 304 303 301 299 297 295 294 293 292 291 289 287 284 282 279 276 274 273 272 271 270
311 312 313 314 314 314 314 313 312 311 311 310 309 308 307 307 305 304 304 303 303 303 303 303 303 302 300 298 296 294 293 292 290 288 285 283 280 277 275 273 271 270 269
312 313 314 314 314 314 313 312 312 311 310 310 309 308 308 307 307 306 306 305 305 304 304 304 303 303 302 301 299 297 295 293 292 290 287 285 282 279 276 273 270 269 269
313 314 314 314 314 313 312 312 311 311 310 310 310 309 310 310 309 309 308 308 308 307 307 306 305 304 303 302 301 299 297 295 294 292 290 287 285 281 278 274 272 270 269
314 314 314 314 314 313 312 311 311 310 310 310 309 309 309 309 309 309 310 310 310 309 309 308 307 306 305 304 303 301 298 297 295 293 291 289 287 284 280 277 274 272 270
314 314 314 314 313 312 312 311 311 310 310 309 309 309 309 309 309 310 310 311 311 311 311 310 309 309 308 307 306 304 302 299 297 295 292 290 288 285 283 280 277 274 272
314 314 314 313 312 312 311 311 311 311 311 311 310 310 309 310 310 310 311 312 313 313 312 312 312 311 311 311 310 309 307 305 302 299 295 293 290 288 286 283 280 278 275
314 313 313 312 312 311 311 310 310 310 310 311 311 310 310 310 310 310 311 312 313 314 314 313 314 314 314 314 314 312 310 308 305 302 299 296 293 291 289 287 285 281 278
313 312 311 311 310 310 310 309 309 309 310 311 310 310 310 311 311 311 312 312 313 314 314 315 315 317 318 318 317 316 314 311 309 305 302 299 297 295 293 290 288 285 282
312 311 310 310 309 309 308 308 308 309 310 310 310 310 311 312 313 313 313 314 314 314 315 315 316 318 319 319 319 318 317 315 313 310 307 303 300 297 295 292 289 287 284
310 309 309 308 308 308 308 307 308 309 309 310 311 311 311 313 314 314 314 315 315 315 315 315 316 318 319 319 319 318 317 315 313 311 309 306 304 301 297 294 291 288 286
307 307 307 307 307 307 307 307 307 308 309 310 311 311 312 314 315 315 315 316 315 315 315 315 315 317 318 319 319 319 317 315 313 311 310 307 304 302 300 297 293 290 287
306 305 305 305 305 305 305 306 306 307 308 310 311 312 313 314 315 316 316 317 316 315 315 315 315 317 318 319 320 320 318 316 314 312 310 308 305 303 300 297 294 291 288
305 304 304 304 304 304 304 305 306 306 307 309 311 313 314 315 316 317 318 319 318 317 316 316 317 318 319 320 321 321 319 317 316 314 312 309 307 305 303 299 296 293 291
Height
5726 5721 5716 5712 5707 5701 5695 5689 5683 5676 5669 5661 5654 5646 5637 5628 5619 5609 5600 5591 5581 5572 5562 5553 5544 5534 5526 5518 5510 5504 5497 5490 5487 5498 5495 5488 5482 5482 5482 5482 5482 5483 5487
5714 5709 5704 5699 5693 5687 5681 5674 5666 5659 5651 5643 5634 5625 5616 5606 5596 5585 5576 5566 5556 5546 5536 5526 5517 5507 5500 5492 5484 5478 5472 5466 5461 5464 5470 5463 5458 5456 5456 5457 5457 5458 5461
5702 5696 5691 5685 5679 5672 5665 5657 5649 5641 5632 5623 5614 5604 5594 5583 5572 5561 5550 5540 5530 5520 5510 5500 5492 5483 5476 5469 5462 5456 5451 5446 5441 5439 5443 5441 5437 5434 5433 5435 5435 5436 5438
5689 5683 5677 5670 5663 5656 5648 5640 5631 5622 5613 5603 5592 5582 5570 5559 5547 5536 5525 5514 5505 5495 5485 5477 5469 5461 5454 5448 5442 5437 5432 5428 5423 5420 5421 5420 5418 5416 5413 5415 5415 5416 5418
5675 5669 5662 5655 5648 5639 5631 5622 5613 5603 5592 5581 5570 5559 5547 5534 5522 5511 5500 5491 5482 5473 5465 5456 5449 5442 5436 5430 5425 5420 5415 5411 5407 5403 5402 5401 5400 5397 5396 5396 5396 5397 5399
5662 5655 5647 5640 5631 5622 5613 5603 5593 5583 5572 5560 5548 5536 5524 5511 5499 5487 5477 5469 5461 5453 5446 5438 5431 5425 5419 5414 5408 5404 5399 5395 5391 5388 5386 5384 5383 5381 5380 5379 5379 5380 5383
5647 5640 5632 5623 5614 5605 5595 5584 5574 5563 5551 5539 5526 5513 5501 5489 5477 5467 5457 5448 5442 5435 5427 5421 5415 5409 5403 5398 5393 5389 5385 5380 5376 5373 5370 5369 5367 5366 5364 5364 5363 5364 5366
5632 5624 5615 5606 5596 5586 5576 5565 5554 5542 5530 5517 5504 5491 5480 5469 5458 5448 5439 5432 5425 5419 5412 5405 5399 5394 5389 5383 5379 5375 5372 5367 5362 5358 5356 5354 5353 5351 5350 5349 5349 5349 5351
5616 5607 5598 5588 5578 5568 5557 5545 5533 5521 5509 5496 5483 5471 5460 5451 5440 5431 5423 5417 5411 5404 5398 5391 5385 5380 5375 5370 5366 5362 5359 5355 5349 5345 5342 5340 5339 5337 5336 5335 5335 5335 5337
5600 5591 5580 5570 5559 5548 5537 5524 5512 5499 5487 5476 5464 5453 5442 5434 5425 5416 5408 5402 5397 5391 5385 5379 5373 5367 5362 5357 5352 5349 5345 5341 5336 5333 5330 5328 5326 5325 5323 5322 5322 5322 5323
5583 5573 5563 5551 5540 5528 5517 5504 5491 5479 5468 5457 5447 5438 5427 5419 5411 5403 5395 5388 5383 5377 5372 5367 5361 5355 5350 5345 5340 5336 5332 5327 5323 5321 5318 5316 5314 5313 5311 5310 5310 5310 5310
5566 5556 5545 5533 5521 5508 5496 5484 5471 5460 5450 5440 5431 5423 5414 5406 5398 5391 5383 5376 5370 5364 5359 5354 5349 5343 5338 5333 5328 5323 5319 5315 5311 5309 5307 5305 5303 5301 5300 5298 5298 5297 5298
5549 5538 5526 5515 5502 5489 5477 5465 5454 5443 5433 5425 5417 5409 5402 5394 5386 5379 5373 5366 5359 5353 5347 5342 5336 5331 5326 5321 5316 5311 5307 5303 5300 5297 5295 5293 5291 5289 5288 5287 5286 5285 5285
5531 5520 5508 5496 5484 5471 5459 5447 5437 5427 5418 5410 5402 5395 5389 5382 5375 5368 5362 5355 5349 5343 5337 5331 5325 5319 5314 5309 5305 5301 5296 5292 5288 5285 5283 5281 5278 5277 5275 5274 5273 5273 5272
5512 5501 5489 5477 5466 5455 5444 5432 5422 5413 5402 5395 5388 5381 5375 5370 5363 5356 5349 5344 5338 5332 5326 5321 5315 5310 5304 5299 5294 5290 5285 5281 5277 5274 5271 5268 5266 5263 5262 5261 5260 5260 5260
5494 5482 5471 5460 5448 5438 5429 5421 5410 5400 5391 5382 5375 5368 5363 5357 5351 5345 5339 5333 5326 5321 5315 5310 5304 5299 5294 5289 5284 5280 5275 5271 5267 5263 5259 5256 5253 5251 5249 5248 5247 5247 5247
5474 5463 5452 5442 5431 5422 5413 5405 5399 5392 5381 5373 5365 5358 5352 5346 5340 5334 5329 5323 5317 5311 5305 5300 5294 5289 5284 5279 5274 5269 5265 5260 5256 5252 5248 5245 5242 5240 5238 5237 5236 5235 5235
5456 5445 5435 5425 5416 5407 5398 5391 5384 5377 5372 5365 5357 5349 5342 5336 5330 5324 5319 5313 5308 5301 5296 5290 5285 5279 5274 5269 5264 5259 5254 5249 5245 5241 5238 5235 5232 5229 5227 5226 5224 5223 5222
5440 5429 5419 5410 5401 5393 5385 5378 5372 5365 5359 5353 5347 5340 5334 5327 5321 5315 5309 5304 5298 5293 5287 5281 5276 5270 5265 5260 5254 5249 5244 5240 5235 5231 5228 5224 5222 5219 5217 5215 5213 5211 5210
5424 5414 5404 5396 5388 5381 5374 5367 5360 5354 5348 5342 5336 5330 5325 5319 5313 5307 5301 5295 5290 5284 5279 5273 5268 5262 5257 5251 5246 5241 5236 5231 5227 5222 5219 5215 5212 5209 5207 5205 5202 5200 5199
5409 5400 5391 5383 5376 5369 5362 5356 5350 5344 5338 5333 5327 5320 5315 5309 5304 5299 5293 5287 5282 5276 5271 5266 5260 5255 5249 5244 5238 5233 5228 5223 5219 5214 5210 5207 5203 5200 5197 5194 5192 5190 5188
5394 5386 5378 5371 5364 5358 5351 5345 5339 5334 5328 5323 5317 5312 5306 5300 5295 5290 5285 5279 5274 5269 5263 5258 5253 5248 5242 5237 5232 5226 5221 5216 5211 5206 5202 5198 5194 5191 5188 5185 5182 5179 5177
5380 5373 5366 5359 5353 5347 5341 5335 5330 5324 5319 5313 5308 5303 5298 5292 5287 5282 5277 5272 5266 5261 5256 5251 5246 5241 5235 5230 5225 5219 5214 5209 5204 5199 5194 5189 5185 5181 5178 5175 5172 5169 5167
5367 5360 5354 5348 5342 5336 5331 5326 5320 5315 5310 5305 5299 5294 5289 5284 5279 5274 5269 5264 5259 5254 5249 5244 5239 5234 5228 5223 5217 5212 5206 5201 5196 5191 5186 5181 5176 5172 5168 5165 5162 5159 5156
5354 5348 5342 5336 5331 5326 5321 5316 5311 5306 5301 5297 5292 5287 5282 5277 5272 5267 5262 5257 5252 5247 5242 5237 5232 5227 5221 5216 5210 5204 5199 5193 5188 5182 5177 5173 5168 5163 5159 5155 5152 5149 5146
5341 5335 5330 5325 5320 5316 5311 5307 5303 5298 5293 5289 5284 5280 5275 5270 5265 5260 5256 5250 5245 5240 5235 5230 5225 5220 5214 5209 5203 5197 5191 5185 5180 5174 5169 5164 5159 5154 5150 5146 5142 5139 5136